Showing default

QUBE2, 69023

Orbit data source: Space-Track

QUBE2, 69023 is a payload satellite owned by ZfT (DE) in SSO that was launched on Sun, 03 May 2026 UTC via an FALCON 9 launch vehicle from the Air Force Western Test Range (AFWTR). Payload-class satellites include a variety of spacecraft equipped with specific instruments for various scientific and technological missions. These include communications satellites like Starlink; space stations such as the ISS; scientific satellites like the Hubble; Earth observation satellites from companies like Planet Labs, Umbra, and HawkEye 360; GPS; miniature CubeSats for education and research; and military/defense satellites.

Loading next visibility...
Identifier
69023, 2026-100AV
Orbit
SSO
Country
Flag of DEDE / GER
Related business
Manufacturer
NanoAvionics
Mission
Operational Commercial Communications
Bus & Motor
CUBESAT 3U, Unknown motor
Mass
4 kg wet, 4 kg dry
Launch date (UTC)
2026-05-03 (5 months ago)
Launch vehicle
FALCON 9
Launch site
Air Force Western Test Range (AFWTR)
Object type
Payload
Rocket body
Debris
Shape & HBR
Box, 1.0 m
Radar Cross Section
0.035 m², Medium (>0.1 m² and < 1m²)

Expand to show TLE details & history
Last TLE update: 4 hours ago

TLE from 4 hours ago
0 QUBE2
1 69023U 26100AV  26264.95093963  .00005121  00000-0  23087-3 0  9995
2 69023  97.3933 161.0580 0004200  42.8801 317.2762 15.21462141 21510
Epoch: 2026-09-21T22:49Z
TLE epoch observation values (Epoch: 2026-09-21T22:49:21.184Z)
Latitude
0.00002°
Longitude
177.89632°
Altitude
502.4 km
Speed
7.614 km/s
True Right ascension
10h 44m 13s
True Declination
0° 00' 00"
Sunlit
Object was in daylight at epoch
Visualization orbit readout
Latitude
Unknown
Longitude
Unknown
Altitude
Unknown
Speed
Unknown
Apparent Right ascension
Unknown
Apparent Declination
Unknown
Sunlit
N/A
Visualization observer readout
Local Sidereal Time
20:10:15
Azimuth
Unknown
Elevation
Unknown
Doppler factor
Unknown
Orbital elements
Apogee altitude
501.281 km
Perigee altitude
495.505 km
Semi-major axis
6,876.53 km
Eccentricity
0.00042
Inclination
97.3933°
RAAN
161.058°
Arg. of periapsis
42.8801°
True anomaly
317.24353°
Mean anomaly
317.2762°
Eccentric anomaly
317.25987°
Mean motion
3.80618 °/min
Orbital period
94.58 mins
BSTAR
0.00023087
Loading maneuver chart data...
Computing Atmospheric mass density...
Loading historical data...
Loading historical data...
Loading historical data...
Loading historical data...
Loading historical data...
Loading historical data...
Loading historical data...

Documentation

Showing up to 5 results
|